SCP
0 0 -0 0 -0 -0 -0 -0 -0 -0 -0 -0 -0 -0 -0 -0 -0 -0 -0 -0 -0 -0 -0 -0 -0 -0 -0 -0 -0 -0 -0 -0 -0 -0 -0 -0 -0 -0 -0 -0 -0 -0 -0
0 0 -0 -0 -0 -0 -0 -0 0 -0 -0 -0 -0 -0 -0 -0 -0 -0 -0 -0 -0 -0 -0 -0 -0 -0 -0 -0 -0 -0 -0 -0 -0 -0 -0 -0 -0 -0 -0 -0 -0 -0 -0
0 0 0 0 -0 -0 -0 -0 -0 -0 -0 -0 -0 -0 -0 -0 -0 -0 -0 -0 -0 -0 -0 -0 -0 -0 -0 -0 -0 -0 -0 -0 -0 -0 -0 -0 -0 -0 -0 -0 -0 -0 -0
0 0 0 0 -0 -0 -0 0 -0 -0 -0 -0 -0 -0 -0 -0 -0 -0 -0 -0 -0 -0 -0 -0 -0 -0 -0 -0 -0 -0 -0 -0 -0 -0 0 -0 0 -0 -0 -0 -0 -0 -0
0 0 0 0 -0 0 -0 0 -0 -0 -0 -0 -0 -0 -0 -0 -0 -0 -0 -0 -0 -0 -0 -0 -0 -0 -0 -0 -0 -0 0 -0 -0 -0 -0 -0 -0 -0 -0 -0 -0 -0 -0
0 0 0 0 0 0 -0 0 -0 -0 -0 -0 -0 -0 -0 -0 -0 -0 -0 -0 -0 -0 -0 -0 -0 -0 0 -0 -0 0 0 -0 -0 -0 -0 -0 0 -0 -0 -0 -0 0 0
0 0 0 0 0 0 -0 -0 -0 -0 -0 -0 -0 -0 -0 -0 -0 -0 -0 -0 -0 -0 -0 -0 -0 -0 0 0 -0 0 0 0 -0 -0 -0 -0 0 -0 -0 -0 0 0 0
0 0 0 0 0 0 -0 -0 -0 -0 -0 -0 -0 -0 -0 -0 -0 -0 -0 -0 -0 -0 0 0 0 0 0 0 -0 0 0 0 -0 -0 -0 -0 -0 -0 0 0 0 0 0
0 0 0 0 0 0 0 0 0 -0 -0 -0 -0 -0 -0 -0 -0 -0 -0 -0 -0 -0 -0 0 0 0 0 0 0 0 0 0 0 0 -0 -0 -0 -0 0 0 0 0 0
0 0 0 0 0 0 0 -0 0 0 -0 -0 -0 -0 -0 0 0 0 0 -0 -0 -0 -0 -0 -0 -0 0 0 0 0 0 0 -0 -0 -0 -0 0 0 0 0 0 0 0
0 0 0 0 0 0 0 0 -0 -0 -0 -0 -0 -0 0 0 0 0 0 0 0 -0 -0 -0 -0 -0 -0 -0 -0 0 -0 0 0 0 0 -0 0 0 0 0 0 0 0
0 0 0 0 0 0 0 0 0 0 -0 0 -0 -0 0 0 0 0 0 0 -0 0 0 0 0 0 0 0 0 0 0 0 0 0 0 0 0 0 0 0 0 0 0
0 0 0 0 0 0 0 0 0 0 0 0 -0 -0 0 0 0 0 0 0 0 0 0 0 0 0 0 0 0 0 0 0 0 0 0 0 0 0 0 0 0 0 0
0 0 0 0 0 0 0 0 0 0 0 0 0 -0 0 0 0 0 0 0 0 0 0 0 0 0 0 0 0 0 0 0 0 0 0 0 0 0 0 0 0 0 0
0 0 0 0 0 0 0 0 0 0 0 0 0 -0 -0 -0 -0 -0 -0 -0 0 0 0 0 0 0 0 0 0 0 0 0 0 0 0 0 0 0 0 0 0 0 0
0 0 0 0 0 0 0 0 0 0 0 0 0 0 -0 -0 -0 -0 -0 -0 0 0 0 0 0 0 0 0 0 0 0 0 0 0 0 0 0 0 0 0 0 0 0
0 0 0 0 0 0 0 0 0 0 0 0 0 0 0 -0 -0 -0 -0 0 0 0 0 0 0 0 0 0 0 0 0 0 0 0 0 0 0 0 0 0 0 0 0
0 0 0 0 0 0 0 0 0 0 0 0 0 0 0 0 -0 -0 0 0 0 0 0 0 0 0 0 0 0 0 0 0 0 0 0 0 0 0 0 0 0 0 0
0 0 0 0 0 0 0 0 0 0 0 0 0 0 0 0 0 0 0 0 0 0 0 0 0 0 0 0 0 0 0 0 0 0 0 0 0 0 0 0 0 0 0
0 0 0 0 0 0 0 0 0 0 0 0 0 0 0 0 0 0 0 0 0 0 0 0 0 0 0 0 0 0 0 0 0 0 0 0 0 0 0 0 0 0 0
0 0 0 0 0 0 0 0 0 0 0 0 0 0 0 0 0 0 0 0 0 0 0 0 0 0 0 0 0 0 0 0 0 0 0 0 0 0 0 0 0 0 0
0 0 0 0 0 0 0 0 0 0 0 0 0 0 0 0 0 0 0 0 0 0 0 0 0 0 0 0 0 0 0 0 0 0 0 0 0 0 0 0 0 0 0
0 0 0 0 0 0 0 0 0 0 0 0 0 0 0 0 0 0 0 0 0 0 0 0 0 0 0 0 0 0 0 0 0 0 0 0 0 0 0 0 0 0 0
0 0 0 0 0 0 0 0 0 0 0 0 0 0 0 0 0 0 0 0 0 0 0 0 0 0 0 0 0 0 0 0 0 0 0 0 0 0 0 0 0 0 0
0 0 0 0 0 0 0 0 0 0 0 0 0 0 0 0 0 0 0 0 0 0 0 0 0 0 0 0 0 0 0 0 0 0 0 0 0 0 0 0 0 0 0
0 0 0 0 0 0 0 0 0 0 0 0 0 0 0 0 0 0 0 0 0 0 0 0 0 0 0 0 0 0 0 0 0 0 0 0 0 0 0 0 0 0 0
Wind_Speed_500mb
51 48 40 35 32 27 19 12 8 31 23 21 27 27 31 31 32 31 32 31 30 32 31 32 32 30 27 25 24 25 28 29 33 35 36 33 30 35 35 36 35 37 37
61 52 38 39 37 28 20 13 9 32 23 23 28 28 30 30 30 30 29 30 31 32 29 35 32 33 29 26 26 28 34 34 30 25 35 33 32 32 35 37 33 35 34
60 53 41 39 41 28 18 11 15 31 27 27 25 29 28 27 29 28 29 30 29 32 28 31 31 30 29 30 28 33 31 33 34 36 36 29 26 34 34 33 35 36 37
58 55 44 40 38 27 17 9 14 31 26 26 26 26 29 28 28 27 28 31 29 32 30 31 28 32 30 29 27 32 31 38 31 33 33 27 31 29 30 32 32 32 33
56 55 44 41 39 28 17 9 8 33 30 29 24 30 28 27 26 26 27 28 29 29 29 26 30 28 31 26 24 30 44 33 31 33 29 26 28 28 30 29 30 31 32
57 50 42 39 40 35 24 13 11 32 32 31 32 28 29 25 26 26 27 27 28 27 26 26 26 27 30 30 21 31 35 31 29 28 25 29 27 25 27 27 28 28 27
58 52 44 42 43 32 27 18 14 29 32 31 27 29 27 27 26 25 25 25 25 25 25 25 27 25 29 28 27 31 30 31 24 20 21 25 23 19 24 26 24 23 24
59 57 49 52 44 35 28 22 18 20 32 33 30 32 26 27 26 25 24 24 24 24 24 24 25 25 27 27 24 27 29 25 24 20 22 28 20 16 22 22 21 19 20
57 57 52 53 42 36 31 27 21 20 32 35 28 29 27 28 27 25 24 23 23 23 22 22 22 22 23 22 21 20 23 22 20 16 22 24 20 13 19 19 17 15 16
56 54 56 51 46 39 33 26 25 26 34 35 30 33 30 29 27 26 24 22 21 21 19 19 18 19 19 18 17 17 17 19 17 17 19 23 13 12 13 10 12 12 10
59 59 61 58 46 41 37 31 29 28 37 35 35 35 31 27 25 24 22 20 19 18 17 15 13 13 15 15 14 14 13 11 11 11 10 14 11 7 7 4 6 7 7
69 66 65 61 53 47 40 39 35 30 40 40 38 34 33 30 27 24 22 19 18 16 15 13 11 8 8 10 9 9 7 5 4 4 3 4 8 5 3 5 4 4 6
70 71 72 67 58 53 49 43 39 33 35 35 34 32 35 33 29 27 23 19 17 15 12 10 9 7 4 4 4 3 2 2 3 4 6 6 7 5 3 5 5 8 8
72 71 75 71 64 59 55 42 39 37 35 33 35 36 35 34 32 29 25 22 20 17 15 12 10 8 7 5 4 4 5 6 8 10 11 12 13 13 14 13 12 10 13
72 70 73 76 73 67 62 47 41 40 37 35 36 40 38 35 32 30 27 24 22 20 18 16 15 14 13 12 11 12 13 14 15 16 17 18 18 19 20 21 21 20 17
70 68 68 77 76 74 68 60 52 42 43 42 40 43 39 37 35 31 28 27 26 24 23 23 22 21 21 19 19 20 21 22 23 24 25 25 25 25 26 26 27 26 26
73 68 68 70 75 75 71 65 60 49 49 48 45 46 44 39 37 35 32 30 28 28 29 28 27 27 27 27 27 28 30 31 31 32 33 33 33 32 32 32 33 32 32
75 73 69 68 71 73 74 71 65 57 53 51 48 48 50 46 41 38 36 33 33 33 32 31 32 33 33 34 34 35 37 39 38 39 41 40 39 39 39 39 39 38 38
75 74 74 70 71 69 69 73 69 61 58 52 49 47 50 48 46 42 39 36 37 36 35 35 36 37 37 38 41 42 43 44 44 45 45 45 45 45 44 44 44 43 42
74 75 74 72 70 69 65 70 68 65 63 57 50 48 47 48 47 47 45 42 41 39 38 37 38 39 41 41 45 48 47 48 47 48 47 48 47 46 45 44 43 43 43
73 76 77 78 73 73 73 73 74 75 71 66 61 52 48 46 48 49 48 47 45 42 38 39 41 42 42 41 49 49 45 49 42 36 33 33 34 36 38 35 34 38 41
75 77 76 78 76 74 74 75 75 75 69 67 61 58 53 49 47 48 48 47 47 45 42 42 42 43 44 40 43 48 31 39 23 10 29 40 26 29 32 33 37 39 40
77 79 83 78 77 72 75 76 77 74 70 71 72 67 61 55 51 50 47 47 47 47 45 43 43 44 43 43 40 33 17 12 45 37 35 34 23 20 27 37 40 40 44
78 78 80 77 80 75 76 78 81 79 77 76 73 64 59 55 52 51 49 48 47 47 47 43 43 45 46 44 43 43 44 47 31 34 30 29 46 40 35 44 50 49 47
78 79 76 79 78 77 75 78 77 81 76 73 70 63 57 54 51 49 50 48 47 47 45 43 44 44 47 47 45 45 46 48 50 53 72 63 58 55 54 52 50 50 45
77 76 77 78 81 77 75 78 78 78 75 71 68 62 54 52 51 49 49 48 45 45 44 42 43 44 45 48 48 48 49 49 54 52 57 71 74 72 65 60 56 49 40
Wind_Direction_500mb
160 160 160 165 163 174 158 150 129 134 138 130 122 112 113 108 104 109 104 102 101 96 101 103 111 117 117 115 110 109 109 94 105 87 98 86 83 75 75 72 76 73 74
156 159 162 166 168 181 162 134 126 133 142 128 123 122 117 111 110 108 107 105 101 101 108 113 108 105 105 103 97 95 108 95 88 85 88 81 78 79 75 73 75 77 74
161 161 161 163 171 177 161 146 140 141 138 134 135 120 118 115 111 110 110 108 105 104 110 102 94 89 96 95 97 96 111 93 90 85 85 81 68 78 73 76 74 68 69
165 165 171 176 181 185 172 138 139 138 147 134 128 134 118 120 117 116 115 113 110 109 109 110 114 107 97 97 102 103 103 102 97 97 95 82 72 77 80 70 71 79 76
171 172 175 181 185 192 189 165 164 148 144 141 140 136 134 129 129 121 118 116 114 116 117 113 113 104 101 103 99 101 116 104 103 102 104 83 77 72 70 73 72 73 76
176 177 179 187 193 192 200 201 181 150 148 153 147 147 132 135 130 130 124 124 121 118 117 111 117 106 99 107 98 105 115 107 119 109 106 95 83 72 73 73 69 71 70
178 178 176 181 180 190 203 202 195 160 156 160 149 147 150 146 137 134 130 125 122 116 109 103 103 98 90 96 96 107 113 110 120 113 96 99 84 75 79 74 69 71 66
181 177 180 183 189 197 205 213 205 187 168 156 166 152 162 151 146 141 134 126 120 111 106 102 97 91 85 83 84 103 123 109 121 105 94 90 76 73 77 76 71 64 65
181 181 180 185 193 205 210 221 217 218 169 162 171 161 166 159 153 147 141 132 124 118 114 106 101 95 89 87 91 97 120 109 108 105 101 88 76 64 65 68 65 63 61
183 183 185 191 197 202 206 213 223 219 181 170 173 177 173 165 159 153 148 141 132 126 121 112 105 100 97 93 90 94 111 113 108 99 94 93 77 70 84 68 61 67 58
187 184 191 189 198 202 203 208 219 232 180 179 180 185 175 170 165 161 156 152 144 137 128 118 110 100 95 91 85 84 98 110 108 106 100 93 97 67 60 72 70 46 40
191 191 198 198 200 198 204 211 220 218 188 189 193 186 177 177 176 173 170 167 161 157 148 143 134 118 100 99 89 80 82 99 105 109 64 30 117 136 3 4 12 30 348
195 196 198 198 198 200 206 213 215 212 208 202 199 187 184 186 185 183 183 184 183 179 175 172 170 165 153 124 104 76 54 349 311 308 316 319 318 310 241 274 292 308 308
200 202 203 201 201 202 212 215 214 213 209 208 204 200 192 192 193 193 194 197 200 202 205 208 213 217 223 235 250 268 280 286 291 291 291 298 301 295 294 290 283 283 293
206 206 209 204 203 206 219 224 226 224 220 218 214 206 202 201 203 205 207 209 212 216 224 231 236 242 248 256 265 271 276 279 282 284 286 288 289 288 286 286 285 283 282
211 210 209 208 207 212 224 228 232 233 227 223 220 215 214 212 212 214 218 221 224 229 235 241 246 250 255 262 268 273 277 279 280 281 282 283 283 283 283 282 282 282 282
214 213 211 211 212 216 224 229 233 235 231 226 225 219 219 221 224 225 223 228 233 239 243 248 253 259 264 269 273 276 278 280 281 282 282 282 282 282 281 281 281 281 282
220 218 216 216 217 219 223 227 230 232 237 231 227 225 225 228 230 229 228 232 239 244 247 252 258 262 267 273 277 279 280 280 282 283 282 282 282 282 281 281 281 281 280
223 222 222 220 220 220 222 226 230 232 237 232 225 230 229 232 233 235 235 236 241 247 252 256 260 266 272 276 279 280 282 284 285 282 282 283 282 282 283 281 280 279 280
225 227 227 226 223 221 222 224 226 231 233 227 227 230 233 235 237 239 239 240 244 248 254 260 265 269 274 279 282 284 287 289 287 284 283 280 281 282 285 285 283 282 281
225 227 225 225 224 221 219 219 221 226 226 227 229 230 234 239 240 242 242 244 247 253 258 260 263 269 276 283 289 292 295 294 292 288 287 288 288 285 283 292 292 290 290
227 225 225 226 226 223 222 222 224 223 227 231 233 234 237 240 244 245 245 247 250 253 256 261 267 272 277 282 286 301 312 310 303 318 304 301 300 288 292 296 297 299 297
228 226 225 225 226 225 225 224 225 226 229 233 234 237 237 240 243 247 248 249 251 254 257 262 266 270 276 280 282 281 304 300 306 310 308 303 308 311 302 298 297 299 298
231 228 227 227 226 225 226 227 227 229 229 232 235 237 238 240 244 248 248 248 251 255 257 262 265 268 271 275 280 278 280 283 295 304 297 300 302 307 305 304 302 303 303
231 230 228 227 228 227 228 230 230 232 235 239 241 241 239 241 245 248 249 249 250 254 260 263 264 267 272 275 276 281 281 281 281 279 294 303 304 302 305 304 303 304 302
232 232 229 227 227 228 229 231 232 235 237 239 240 242 241 242 246 248 248 250 252 255 260 265 268 267 270 273 276 277 279 282 285 287 288 297 302 308 310 308 310 314 314
Wind_Speed_850mb
51 48 40 35 32 27 19 12 8 31 23 21 27 27 31 31 32 31 32 31 30 32 31 32 32 30 27 25 24 25 28 29 33 35 36 33 30 35 35 36 35 37 37
61 52 38 39 37 28 20 13 9 32 23 23 28 28 30 30 30 30 29 30 31 32 29 35 32 33 29 26 26 28 34 34 30 25 35 33 32 32 35 37 33 35 34
60 53 41 39 41 28 18 11 15 31 27 27 25 29 28 27 29 28 29 30 29 32 28 31 31 30 29 30 28 33 31 33 34 36 36 29 26 34 34 33 35 36 37
58 55 44 40 38 27 17 9 14 31 26 26 26 26 29 28 28 27 28 31 29 32 30 31 28 32 30 29 27 32 31 38 31 33 33 27 31 29 30 32 32 32 33
56 55 44 41 39 28 17 9 8 33 30 29 24 30 28 27 26 26 27 28 29 29 29 26 30 28 31 26 24 30 44 33 31 33 29 26 28 28 30 29 30 31 32
57 50 42 39 40 35 24 13 11 32 32 31 32 28 29 25 26 26 27 27 28 27 26 26 26 27 30 30 21 31 35 31 29 28 25 29 27 25 27 27 28 28 27
58 52 44 42 43 32 27 18 14 29 32 31 27 29 27 27 26 25 25 25 25 25 25 25 27 25 29 28 27 31 30 31 24 20 21 25 23 19 24 26 24 23 24
59 57 49 52 44 35 28 22 18 20 32 33 30 32 26 27 26 25 24 24 24 24 24 24 25 25 27 27 24 27 29 25 24 20 22 28 20 16 22 22 21 19 20
57 57 52 53 42 36 31 27 21 20 32 35 28 29 27 28 27 25 24 23 23 23 22 22 22 22 23 22 21 20 23 22 20 16 22 24 20 13 19 19 17 15 16
56 54 56 51 46 39 33 26 25 26 34 35 30 33 30 29 27 26 24 22 21 21 19 19 18 19 19 18 17 17 17 19 17 17 19 23 13 12 13 10 12 12 10
59 59 61 58 46 41 37 31 29 28 37 35 35 35 31 27 25 24 22 20 19 18 17 15 13 13 15 15 14 14 13 11 11 11 10 14 11 7 7 4 6 7 7
69 66 65 61 53 47 40 39 35 30 40 40 38 34 33 30 27 24 22 19 18 16 15 13 11 8 8 10 9 9 7 5 4 4 3 4 8 5 3 5 4 4 6
70 71 72 67 58 53 49 43 39 33 35 35 34 32 35 33 29 27 23 19 17 15 12 10 9 7 4 4 4 3 2 2 3 4 6 6 7 5 3 5 5 8 8
72 71 75 71 64 59 55 42 39 37 35 33 35 36 35 34 32 29 25 22 20 17 15 12 10 8 7 5 4 4 5 6 8 10 11 12 13 13 14 13 12 10 13
72 70 73 76 73 67 62 47 41 40 37 35 36 40 38 35 32 30 27 24 22 20 18 16 15 14 13 12 11 12 13 14 15 16 17 18 18 19 20 21 21 20 17
70 68 68 77 76 74 68 60 52 42 43 42 40 43 39 37 35 31 28 27 26 24 23 23 22 21 21 19 19 20 21 22 23 24 25 25 25 25 26 26 27 26 26
73 68 68 70 75 75 71 65 60 49 49 48 45 46 44 39 37 35 32 30 28 28 29 28 27 27 27 27 27 28 30 31 31 32 33 33 33 32 32 32 33 32 32
75 73 69 68 71 73 74 71 65 57 53 51 48 48 50 46 41 38 36 33 33 33 32 31 32 33 33 34 34 35 37 39 38 39 41 40 39 39 39 39 39 38 38
75 74 74 70 71 69 69 73 69 61 58 52 49 47 50 48 46 42 39 36 37 36 35 35 36 37 37 38 41 42 43 44 44 45 45 45 45 45 44 44 44 43 42
74 75 74 72 70 69 65 70 68 65 63 57 50 48 47 48 47 47 45 42 41 39 38 37 38 39 41 41 45 48 47 48 47 48 47 48 47 46 45 44 43 43 43
73 76 77 78 73 73 73 73 74 75 71 66 61 52 48 46 48 49 48 47 45 42 38 39 41 42 42 41 49 49 45 49 42 36 33 33 34 36 38 35 34 38 41
75 77 76 78 76 74 74 75 75 75 69 67 61 58 53 49 47 48 48 47 47 45 42 42 42 43 44 40 43 48 31 39 23 10 29 40 26 29 32 33 37 39 40
77 79 83 78 77 72 75 76 77 74 70 71 72 67 61 55 51 50 47 47 47 47 45 43 43 44 43 43 40 33 17 12 45 37 35 34 23 20 27 37 40 40 44
78 78 80 77 80 75 76 78 81 79 77 76 73 64 59 55 52 51 49 48 47 47 47 43 43 45 46 44 43 43 44 47 31 34 30 29 46 40 35 44 50 49 47
78 79 76 79 78 77 75 78 77 81 76 73 70 63 57 54 51 49 50 48 47 47 45 43 44 44 47 47 45 45 46 48 50 53 72 63 58 55 54 52 50 50 45
77 76 77 78 81 77 75 78 78 78 75 71 68 62 54 52 51 49 49 48 45 45 44 42 43 44 45 48 48 48 49 49 54 52 57 71 74 72 65 60 56 49 40
Wind_Direction_850mb
160 160 160 165 163 174 158 150 129 134 138 130 122 112 113 108 104 109 104 102 101 96 101 103 111 117 117 115 110 109 109 94 105 87 98 86 83 75 75 72 76 73 74
156 159 162 166 168 181 162 134 126 133 142 128 123 122 117 111 110 108 107 105 101 101 108 113 108 105 105 103 97 95 108 95 88 85 88 81 78 79 75 73 75 77 74
161 161 161 163 171 177 161 146 140 141 138 134 135 120 118 115 111 110 110 108 105 104 110 102 94 89 96 95 97 96 111 93 90 85 85 81 68 78 73 76 74 68 69
165 165 171 176 181 185 172 138 139 138 147 134 128 134 118 120 117 116 115 113 110 109 109 110 114 107 97 97 102 103 103 102 97 97 95 82 72 77 80 70 71 79 76
171 172 175 181 185 192 189 165 164 148 144 141 140 136 134 129 129 121 118 116 114 116 117 113 113 104 101 103 99 101 116 104 103 102 104 83 77 72 70 73 72 73 76
176 177 179 187 193 192 200 201 181 150 148 153 147 147 132 135 130 130 124 124 121 118 117 111 117 106 99 107 98 105 115 107 119 109 106 95 83 72 73 73 69 71 70
178 178 176 181 180 190 203 202 195 160 156 160 149 147 150 146 137 134 130 125 122 116 109 103 103 98 90 96 96 107 113 110 120 113 96 99 84 75 79 74 69 71 66
181 177 180 183 189 197 205 213 205 187 168 156 166 152 162 151 146 141 134 126 120 111 106 102 97 91 85 83 84 103 123 109 121 105 94 90 76 73 77 76 71 64 65
181 181 180 185 193 205 210 221 217 218 169 162 171 161 166 159 153 147 141 132 124 118 114 106 101 95 89 87 91 97 120 109 108 105 101 88 76 64 65 68 65 63 61
183 183 185 191 197 202 206 213 223 219 181 170 173 177 173 165 159 153 148 141 132 126 121 112 105 100 97 93 90 94 111 113 108 99 94 93 77 70 84 68 61 67 58
187 184 191 189 198 202 203 208 219 232 180 179 180 185 175 170 165 161 156 152 144 137 128 118 110 100 95 91 85 84 98 110 108 106 100 93 97 67 60 72 70 46 40
191 191 198 198 200 198 204 211 220 218 188 189 193 186 177 177 176 173 170 167 161 157 148 143 134 118 100 99 89 80 82 99 105 109 64 30 117 136 3 4 12 30 348
195 196 198 198 198 200 206 213 215 212 208 202 199 187 184 186 185 183 183 184 183 179 175 172 170 165 153 124 104 76 54 349 311 308 316 319 318 310 241 274 292 308 308
200 202 203 201 201 202 212 215 214 213 209 208 204 200 192 192 193 193 194 197 200 202 205 208 213 217 223 235 250 268 280 286 291 291 291 298 301 295 294 290 283 283 293
206 206 209 204 203 206 219 224 226 224 220 218 214 206 202 201 203 205 207 209 212 216 224 231 236 242 248 256 265 271 276 279 282 284 286 288 289 288 286 286 285 283 282
211 210 209 208 207 212 224 228 232 233 227 223 220 215 214 212 212 214 218 221 224 229 235 241 246 250 255 262 268 273 277 279 280 281 282 283 283 283 283 282 282 282 282
214 213 211 211 212 216 224 229 233 235 231 226 225 219 219 221 224 225 223 228 233 239 243 248 253 259 264 269 273 276 278 280 281 282 282 282 282 282 281 281 281 281 282
220 218 216 216 217 219 223 227 230 232 237 231 227 225 225 228 230 229 228 232 239 244 247 252 258 262 267 273 277 279 280 280 282 283 282 282 282 282 281 281 281 281 280
223 222 222 220 220 220 222 226 230 232 237 232 225 230 229 232 233 235 235 236 241 247 252 256 260 266 272 276 279 280 282 284 285 282 282 283 282 282 283 281 280 279 280
225 227 227 226 223 221 222 224 226 231 233 227 227 230 233 235 237 239 239 240 244 248 254 260 265 269 274 279 282 284 287 289 287 284 283 280 281 282 285 285 283 282 281
225 227 225 225 224 221 219 219 221 226 226 227 229 230 234 239 240 242 242 244 247 253 258 260 263 269 276 283 289 292 295 294 292 288 287 288 288 285 283 292 292 290 290
227 225 225 226 226 223 222 222 224 223 227 231 233 234 237 240 244 245 245 247 250 253 256 261 267 272 277 282 286 301 312 310 303 318 304 301 300 288 292 296 297 299 297
228 226 225 225 226 225 225 224 225 226 229 233 234 237 237 240 243 247 248 249 251 254 257 262 266 270 276 280 282 281 304 300 306 310 308 303 308 311 302 298 297 299 298
231 228 227 227 226 225 226 227 227 229 229 232 235 237 238 240 244 248 248 248 251 255 257 262 265 268 271 275 280 278 280 283 295 304 297 300 302 307 305 304 302 303 303
231 230 228 227 228 227 228 230 230 232 235 239 241 241 239 241 245 248 249 249 250 254 260 263 264 267 272 275 276 281 281 281 281 279 294 303 304 302 305 304 303 304 302
232 232 229 227 227 228 229 231 232 235 237 239 240 242 241 242 246 248 248 250 252 255 260 265 268 267 270 273 276 277 279 282 285 287 288 297 302 308 310 308 310 314 314